Location: Jouarre
(48.9266°N, 3.1317°E)
Time: 14:12:40
(UTC+00:00)

Daily predictions for brighter satellites

Satellite Brightness Start Highest point End
(mag) Time Altitude Azimuth Time Altitude Azimuth Time Altitude Azimuth
USA 215 3.6 20:17:03 10° SE 20:23:31 61° SW 20:30:03 10° WNW
Cosmos 494 Rocket 4.1 20:18:54 10° NNW 20:24:12 86° ENE 20:29:27 10° SSE
NOSS 2-3 (D) 4.0 20:24:20 10° S 20:27:34 29° ESE 20:31:01 10° ENE
IRS-1A Rocket 4.4 20:23:33 10° SSE 20:29:12 76° ENE 20:35:00 10° NNW
Okean-O 3.0 20:25:11 10° S 20:29:33 65° WSW 20:33:57 10° NNW
Gbstr 26 Del rocket 3.3 20:27:56 10° WSW 20:32:14 86° NNW 20:37:30 10° ENE
Timation 2 Rocket 4.3 20:26:28 10° S 20:32:26 46° ESE 20:38:13 10° NE
CZ-4C R/B 3.2 20:29:40 10° NNE 20:33:22 60° ESE 20:36:52 10° S
Cosmos 1125 Rocket 4.3 20:30:01 10° SSE 20:34:41 33° ESE 20:39:23 10° NE
USA 276 1.9 20:36:40 10° WNW 20:39:36 80° SSW 20:42:38 10° ESE
Cosmos 2084 3.5 20:38:47 10° SSW 20:42:48 49° SE 20:46:39 10° NE
SPOT 3 Rocket 3.9 20:38:49 10° SE 20:43:52 55° ENE 20:48:58 10° N
NOSS 2-2 (E) 2.8 20:47:09 10° SSW 20:50:21 54° SE 20:53:25 10° NE
NOSS 2-2 (C) 2.6 20:47:30 10° SW 20:50:41 87° SE 20:53:51 10° NE
In-Cosmos 22 Rocket 4.3 20:47:05 10° S 20:52:45 66° E 20:58:19 10° NNE
Landsat 4 4.3 20:49:58 12° SE 20:52:47 36° ENE 20:55:59 10° N
Nadezhda 3 Rocket 4.0 20:47:05 10° N 20:53:17 89° E 20:59:26 10° S
BREEZE-M DEB (TANK) 3.3 20:51:29 10° W 20:54:15 68° SSW 21:01:42 10° ESE
Cosmos 1544 Rocket 4.3 20:50:28 10° N 20:54:33 38° ENE 20:58:03 13° SE
NOSS 2-3 (E) 3.2 20:52:55 10° SSW 20:56:31 62° SE 21:00:32 10° NE
Cosmos 1844 4.2 20:51:29 10° SW 20:57:15 68° WNW 21:03:01 10° NNE
Terra 1.8 20:53:01 10° SSE 20:57:44 87° WSW 21:02:30 10° NNW
Meteor 1-21 Rocket 4.4 20:58:42 10° SSW 21:04:14 74° WNW 21:09:48 10° N
USA 305 4.2 21:01:43 10° WNW 21:05:15 34° N 21:08:27 10° ENE
ATLAS CENTAUR R/B 1.7 21:03:36 10° NW 21:07:31 56° SW 21:10:52 15° SSE
Cosmos 1437 Rocket 3.6 21:07:19 16° SE 21:09:29 28° E 21:12:37 10° NNE
Meteor 2-1 Rocket 4.2 21:08:04 10° NNW 21:13:44 85° W 21:18:59 12° S
Cosmos 1833 Rocket 2.9 21:08:10 10° NNW 21:13:47 65° ENE 21:18:22 16° SE
NOSS 2-3 (C) 3.1 21:10:38 10° SW 21:14:15 89° SE 21:18:23 10° NE
Cosmos 1455 Rocket 3.8 21:10:45 10° NNW 21:15:02 51° W 21:19:15 10° S
Cosmos 1975 Rocket 3.2 21:14:12 10° SSW 21:18:40 77° W 21:23:10 10° N
Cosmos 1025 Rocket 4.4 21:15:15 10° SW 21:19:12 38° WNW 21:23:12 10° N
Cosmos 44 3.8 21:14:37 10° S 21:19:35 43° ESE 21:24:23 10° NE
Orbus 7S? 4.0 21:17:31 10° WNW 21:19:51 25° SW 21:21:20 17° S
Cosmos 962 Rocket 4.5 21:15:24 10° S 21:21:34 71° E 21:27:42 10° NNE
Lacrosse 5 2.6 21:16:51 10° WSW 21:21:50 56° NNW 21:26:50 10° NE
ERS-1 Rocket 3.8 21:18:45 10° S 21:23:33 45° W 21:28:22 10° NNW
Spot 2 Rocket 3.9 21:19:30 10° S 21:24:30 60° WSW 21:29:34 10° NNW
Cosmos 220 Rocket 3.8 21:21:04 10° NNW 21:25:14 90° ESE 21:28:09 19° SSE
Cosmos 2082 Rocket 3.5 21:21:52 10° NNW 21:26:48 30° NE 21:31:39 10° ESE
NOSS 2-2 (D) 3.3 21:24:58 10° SW 21:28:09 61° NW 21:31:18 10° NE
ATLAS 5 CENTAUR R/B 3.5 21:25:29 10° W 21:28:25 26° NNW 21:31:43 10° NNE
USA 307 4.1 21:24:49 10° WNW 21:28:31 38° N 21:32:02 10° ENE
Cosmos 2218 Rocket 4.2 21:23:42 15° SSE 21:28:42 51° E 21:34:39 10° NNE
Landsat 5 3.8 21:26:43 10° NNE 21:31:03 52° E 21:34:10 17° S
Cosmos 1844 Rocket 4.4 21:28:27 10° WSW 21:33:31 35° NW 21:38:38 10° NNE
Cosmos 2278 Rocket 3.1 21:31:13 18° SSE 21:34:24 30° ESE 21:39:16 10° NE
Cosmos 1606 3.1 21:31:57 10° NNW 21:35:26 52° W 21:38:05 16° SSW
MetOp-A 3.7 21:35:02 20° SSE 21:38:14 75° ENE 21:42:34 10° N
Cosmos 2298 Rocket 4.1 21:33:31 10° S 21:38:40 61° ESE 21:43:56 10° NNE
Cosmos 2341 Rocket 4.0 21:33:38 11° S 21:39:37 77° E 21:45:59 10° NNE
ULPM Upper Stage 4.5 21:36:25 10° NNW 21:40:14 28° NNE 21:44:02 10° E
Cosmos 614 Rocket 4.0 21:36:11 10° NNW 21:41:16 71° ENE 21:44:35 22° SSE
H-2A R/B 4.3 21:44:33 12° E 21:46:42 17° ENE 21:49:17 10° NNE
Cosmos 1869 4.1 21:43:37 10° NNW 21:47:15 43° W 21:50:08 15° SSW
Cosmos 1536 Rocket 3.6 21:47:10 22° S 21:49:51 63° E 21:54:09 10° NNE
CZ-4C R/B 4.1 21:44:09 10° NW 21:50:09 36° NNE 21:57:26 10° E
Ariane Rocket 4.1 21:47:25 11° SSW 21:51:59 39° W 21:56:44 10° NNW
ISS -2.9 21:50:08 10° WNW 21:53:23 51° N 21:56:39 10° E
COSMOS 2406 4.2 21:51:15 10° NNW 21:56:32 37° NE 22:00:48 15° ESE
USA 290 3.6 21:58:15 23° E 21:58:15 23° E 22:00:45 10° NE
ARIANE 5 R/B 3.0 21:58:54 25° SE 22:01:15 52° ENE 22:05:36 10° N
GENESIS II 4.4 21:58:45 10° NW 22:02:14 50° SW 22:03:31 32° S
Cosmos 1269 Rocket 4.4 21:58:43 10° NNW 22:03:57 56° ENE 22:07:06 23° SE
BREEZE-M DEB (TANK) 3.6 21:54:14 10° WNW 22:04:17 42° SW 22:06:11 26° S
ATLAS 3B R/B 3.6 22:01:26 22° SSE 22:04:43 31° ESE 22:11:07 10° NE
Cosmos 1727 Rocket 4.2 21:58:31 10° N 22:04:51 65° ENE 22:08:48 24° SSE
Cosmos 2228 3.5 22:01:27 10° NNW 22:05:33 52° W 22:08:06 21° SSW
Geosat 4.5 22:04:58 10° NNE 22:09:56 61° NW 22:14:52 10° SW
Cosmos 1943 Rocket 2.8 22:08:20 25° SSE 22:10:45 36° ESE 22:15:52 10° NE
USA 276 3.7 22:11:09 10° W 22:13:09 21° SW 22:13:09 21° SW
Cosmos 1821 Rocket 4.1 22:09:49 22° S 22:13:56 68° E 22:20:16 10° NNE
USA 281 4.5 22:09:55 10° ESE 22:15:39 34° NE 22:21:24 10° NNW
Gbstr 26 Del rocket 3.9 22:14:29 10° W 22:19:13 64° N 22:25:06 10° E
Cosmos 2058 4.1 22:19:03 24° ESE 22:20:01 26° E 22:23:29 10° NNE
Cosmos 2150 Rocket 4.4 22:15:01 10° SSW 22:20:23 66° WNW 22:25:50 10° NNE
ALOS 2 3.8 22:19:19 21° ESE 22:21:26 31° ENE 22:25:19 10° N
Cosmos 2084 Rocket 3.4 22:21:41 10° NW 22:25:40 68° NE 22:27:21 32° ESE
Spot 4 4.4 22:23:23 26° SE 22:25:48 50° ENE 22:30:29 10° N
NOSS 3-1 (C) 3.0 22:24:27 12° SW 22:29:03 79° SE 22:35:01 10° NE
Cosmos 1544 4.5 22:30:25 14° NE 22:30:25 14° NE 22:31:01 10° NE
SeaSat 1 2.9 22:26:56 23° ESE 22:29:48 55° NE 22:34:37 10° NNW
Cosmos 1812 2.5 22:32:06 10° N 22:35:39 67° E 22:36:28 48° SE
Terra 4.4 22:34:24 10° WSW 22:36:02 12° W 22:37:42 10° WNW
USA 305 3.7 22:34:38 10° WNW 22:38:01 37° NNE 22:40:35 13° ENE
Cosmos 1238 Rocket 3.8 22:38:05 10° NNE 22:41:10 31° ENE 22:42:01 28° ESE
Aureole 2 4.2 22:41:11 52° SW 22:41:51 80° WNW 22:45:14 10° NNE
BREEZE-M R/B 3.8 22:37:58 10° WSW 22:42:21 79° SSE 22:57:25 10° ENE
PSLV R/B 3.7 22:39:34 10° NNE 22:43:34 76° ESE 22:44:50 42° S
Cosmos 1892 Rocket 3.5 22:45:05 38° S 22:46:43 73° E 22:51:10 10° NNE
Cosmos 1140 Rocket 3.6 22:47:18 10° NNW 22:52:25 65° ENE 22:54:49 31° SE
MINOTAUR 4 R/B 3.4 22:54:19 10° NNE 22:57:02 78° NE 22:57:02 78° NE
Cosmos 1833 Rocket 4.3 22:52:52 10° NW 22:57:13 23° WSW 23:00:03 16° SW
Cosmos 2239 Rocket 4.5 22:55:30 27° SSW 22:59:05 84° W 23:05:23 10° N
SL-08 R/B 4.4 22:57:34 27° SSW 23:01:05 82° W 23:07:14 10° N
BREEZE-M DEB (TANK) 3.6 22:58:39 10° W 23:01:35 78° SSW 23:09:35 10° ESE
USA 307 3.6 22:58:35 10° WNW 23:02:16 43° NNE 23:05:32 11° E
Cosmos-2242 3.7 23:00:33 10° N 23:04:34 41° ENE 23:05:51 32° ESE
Cosmos 2123 Rocket 4.0 22:58:22 10° N 23:04:42 85° E 23:07:51 32° SSE
Lacrosse 5 3.7 23:01:01 10° WNW 23:05:36 33° N 23:10:12 10° ENE
CENTAUR R/B 4.4 22:58:30 10° NW 23:05:37 38° NNE 23:13:49 10° E
NOSS 3-1 (A) 3.0 23:03:57 30° SSW 23:06:28 71° SE 23:12:25 10° NE
Cosmos 1726 Rocket 4.2 23:03:28 10° NNW 23:07:37 45° W 23:09:05 32° SW
NOSS 8 (F) 4.3 23:05:40 10° NW 23:08:44 78° SW 23:09:06 67° S
Cosmos 2082 Rocket 2.4 23:05:43 10° NW 23:11:14 58° WSW 23:13:28 34° S
Cosmos 1515 4.0 23:11:08 10° N 23:14:30 45° ENE 23:14:57 42° ESE
Cosmos 2278 Rocket 2.9 23:12:59 11° SW 23:18:12 52° NW 23:23:45 10° NNE
ULPM Upper Stage 2.7 23:15:39 10° NW 23:20:00 67° SW 23:20:59 49° S
Lacrosse 4 Rocket 3.7 23:20:40 11° E 23:20:40 11° E 23:21:19 10° E
Cosmos 2369 Rocket 3.3 23:19:37 24° SE 23:20:58 27° ESE 23:25:35 10° NE
PSLV R/B 3.9 23:17:04 10° NNE 23:21:18 51° E 23:22:20 41° SE
H-2A R/B 2.8 23:20:31 41° SW 23:21:18 49° W 23:25:03 10° NNW
Cosmos 489 Rocket 4.4 23:24:24 32° S 23:27:25 77° ESE 23:33:39 10° NNE
ISS -3.9 23:26:58 10° WNW 23:30:10 79° WSW 23:30:10 79° WSW
USA 290 4.3 23:30:56 17° W 23:32:27 23° WNW 23:35:06 10° N
Cosmos 2058 Rocket 3.6 23:29:16 10° NNW 23:33:26 45° W 23:34:37 36° SW
Cosmos 1782 2.5 23:30:10 10° N 23:33:59 89° E 23:34:35 62° S
USA 229 DEB 4.0 23:32:18 33° SSE 23:34:18 43° ESE 23:40:34 10° NE
USA 229 4.0 23:32:27 33° SSE 23:34:26 43° ESE 23:40:41 10° NE
Cosmos 1862 3.9 23:35:38 37° ESE 23:36:06 39° E 23:39:42 10° NNE
CRYOSAT 2 4.3 23:31:19 10° N 23:36:13 83° W 23:37:58 41° SSW
ARIANE 5 R/B 4.5 23:36:22 17° WSW 23:37:55 20° W 23:41:12 10° NW
Cosmos 1378 2.7 23:34:50 10° N 23:38:04 70° E 23:38:06 70° E
Cosmos 482 Debris 4.5 23:34:06 10° W 23:38:37 65° NNW 23:41:55 10° ENE
CZ-4C R/B 3.0 23:32:20 10° NW 23:39:24 89° SW 23:45:35 21° SE
COSMOS 2455 4.1 23:34:30 10° NNW 23:40:10 39° NE 23:45:48 10° ESE
Meteor 2-2 Rocket 4.2 23:35:07 10° NNW 23:40:53 89° E 23:43:24 36° SSE
COSMOS 2406 3.8 23:35:34 10° NW 23:40:56 44° WSW 23:42:50 33° SSW
Cosmos 1934 Rocket 4.2 23:39:12 28° SSW 23:42:35 65° WNW 23:48:47 10° N
Cosmos 2221 3.8 23:41:21 10° N 23:45:12 32° ENE 23:46:52 24° ESE
Cosmos 2285 Rocket 4.1 23:45:32 10° NNW 23:52:01 78° ENE 23:55:34 28° SSE
Cosmos 1943 Rocket 3.1 23:49:48 14° WSW 23:54:25 44° NW 23:59:47 10° NNE
